Tracking 19644 objects as of 24-Apr-2019
HD Live streaming from Space Station
objects crossing your sky now

COSMOS 1088

Track COSMOS 1088 now!
10-day predictions
COSMOS 1088 is classified as:


NORAD ID: 11303
Int'l Code: 1979-024H
Perigee: 1,472.0 km
Apogee: 1,554.5 km
Inclination: 74.0 °
Period: 116.1 minutes
Semi major axis: 7884 km
RCS: 0.7099 m2 (medium)
Launch date: March 15, 1979
Source: Commonwealth of Independent States (former USSR) (CIS)
Launch site: PLESETSK MISSILE AND SPACE COMPLEX (PKMTR)
aabbcc
Your satellite tracking list
Your tracking list is empty




NASA's NSSDC Master Catalog

Two Line Element Set (TLE):
1 11303U 79024H   19113.58985208 +.00000008 +00000-0 +17705-3 0  9991
2 11303 074.0348 201.5035 0052310 248.2235 214.4964 12.40121458815742
Source of the keplerian elements: AFSPC